Date,TemperatureHighF,TemperatureAvgF,TemperatureLowF,DewpointHighF,DewpointAvgF,DewpointLowF,HumidityHigh,HumidityAvg,HumidityLow,PressureMaxIn,PressureMinIn,WindSpeedMaxMPH,WindSpeedAvgMPH,GustSpeedMaxMPH,PrecipitationSumIn
2013-1-1,23,1,-12,7,-6,-17,82,73,45,30.38,30.23,15,8,19,0.00
2013-1-2,22,4,-8,9,-3,-12,82,73,50,30.38,30.30,13,6,16,0.00
2013-1-3,32,4,-10,9,-5,-14,83,69,29,30.38,30.30,14,8,18,0.00
2013-1-4,26,6,-5,8,-3,-11,77,65,38,30.37,30.29,16,8,22,0.00
2013-1-5,40,12,-3,15,1,-10,82,63,28,30.40,30.19,16,7,19,0.00
2013-1-6,33,20,4,15,9,0,86,64,42,30.20,30.02,7,3,11,0.00
2013-1-7,34,15,-2,17,6,-7,84,69,36,30.24,30.12,15,6,19,0.00
2013-1-8,45,21,8,28,15,4,91,78,51,30.39,30.21,15,8,18,0.00
2013-1-9,45,31,14,27,20,10,90,65,45,30.39,29.83,27,14,39,0.00
2013-1-10,38,25,11,24,17,2,95,74,56,29.84,29.63,25,15,39,0.00
2013-1-11,19,9,-9,10,2,-15,81,73,56,29.95,29.75,15,5,22,0.00
2013-1-12,19,-1,-14,4,-8,-20,80,72,50,30.04,29.95,14,8,18,0.00
2013-1-13,8,-6,-19,1,-12,-25,84,74,65,30.15,30.02,18,8,25,0.00
2013-1-14,9,-6,-23,-1,-13,-29,78,72,63,30.33,30.14,13,7,18,0.00
2013-1-15,24,7,-8,15,1,-13,87,75,57,30.56,30.32,15,7,18,0.00
2013-1-16,34,12,-3,16,5,-7,87,74,44,30.63,30.52,11,6,14,0.00
2013-1-17,35,10,-5,13,1,-9,82,70,40,30.58,30.45,15,7,18,0.00
2013-1-18,36,12,-3,16,2,-8,79,65,31,30.47,30.38,16,10,19,0.00
2013-1-19,40,17,1,14,4,-5,80,60,28,30.52,30.42,16,8,20,0.00
2013-1-20,39,16,1,16,5,-5,78,62,30,30.47,30.38,17,8,20,0.00
2013-1-21,47,19,2,16,5,-4,77,60,23,30.47,30.36,16,8,20,0.00
2013-1-22,57,28,9,21,11,2,76,53,17,0.00,40.00,19,10,24,0.00
2013-1-23,49,36,22,28,18,10,66,47,27,0.00,40.00,16,10,24,0.00
2013-1-24,43,38,32,36,32,25,96,81,52,0.00,40.00,11,4,17,0.00
2013-1-25,47,37,29,36,33,28,96,86,66,0.00,40.00,10,4,14,0.00
2013-1-26,45,36,30,35,32,28,97,88,68,0.00,40.00,10,4,17,0.00
2013-1-27,39,30,14,33,27,12,97,88,63,0.00,40.00,21,11,34,0.00
2013-1-28,26,13,-10,17,7,-14,91,76,55,0.00,40.00,9,4,12,0.00
2013-1-29,30,24,19,25,20,14,91,84,72,0.00,40.00,21,7,28,0.00
2013-1-30,39,31,16,29,24,12,88,76,67,0.00,40.00,10,6,18,0.00
2013-1-31,46,33,20,29,25,17,91,73,48,0.00,40.00,13,5,17,0.00
2013-2-1,28,19,15,21,15,12,90,86,76,0.00,40.00,15,12,19,0.00
2013-2-3,32,26,22,25,22,19,90,85,74,0.00,40.00,9,6,12,0.00
2013-2-4,52,32,17,23,17,7,87,61,17,0.00,40.00,15,7,19,0.00
2013-2-5,52,36,22,25,19,15,80,53,24,0.00,40.00,15,7,21,0.00
2013-2-6,42,33,22,23,20,12,83,59,29,0.00,40.00,16,7,20,0.00
2013-2-7,46,32,17,22,17,12,82,56,32,0.00,40.00,25,13,33,0.00
2013-2-8,36,29,23,28,24,19,97,83,51,0.00,40.00,15,7,25,0.00
2013-2-9,26,22,16,24,20,11,96,91,77,0.00,40.00,13,8,18,0.00
2013-2-10,24,18,3,21,16,-6,94,88,78,0.00,40.00,22,8,27,0.00
2013-2-11,24,6,-8,12,0,-12,91,77,49,30.24,30.14,11,5,14,0.00
2013-2-12,34,14,-4,21,7,-8,88,73,48,30.36,30.23,13,6,17,0.00
2013-2-13,40,22,6,26,15,3,90,75,47,30.37,30.29,12,6,15,0.00
2013-2-14,38,25,13,25,18,10,91,77,54,30.47,30.32,12,7,17,0.00
2013-2-15,39,24,11,25,18,7,91,77,53,30.52,30.47,12,7,16,0.00
2013-2-16,56,34,14,20,14,8,88,51,16,30.50,30.09,15,8,19,0.00
2013-2-17,43,31,18,22,17,12,83,57,28,30.11,29.97,19,8,25,0.00
2013-2-18,46,28,10,19,11,-3,85,53,15,30.12,29.85,19,8,28,0.00
2013-2-19,42,35,30,27,18,12,88,52,33,29.86,29.54,22,14,30,0.00
2013-2-20,33,28,20,27,23,10,96,81,61,29.88,29.54,20,11,31,0.00
2013-2-21,31,22,12,14,9,1,85,60,27,30.07,29.86,15,7,24,0.00
2013-2-22,36,24,12,21,14,7,84,67,41,30.15,30.05,11,6,19,0.00
2013-2-23,32,26,21,23,15,7,91,62,43,30.08,29.78,23,13,34,0.00
2013-2-24,30,23,12,17,12,4,91,64,32,30.26,30.06,21,11,26,0.00
2013-2-25,45,21,6,22,9,0,81,64,21,30.26,29.98,22,10,31,0.00
2013-2-26,32,24,18,17,11,2,84,61,28,30.32,30.10,15,7,22,0.00
2013-2-27,38,23,7,18,8,-2,83,58,21,30.41,30.31,12,6,17,0.00
2013-2-28,47,30,15,23,15,8,81,56,27,30.54,30.39,14,8,19,0.00
2013-3-1,53,37,23,32,25,19,88,66,33,30.58,30.48,12,7,16,0.00
2013-3-2,58,40,27,31,26,22,90,61,26,30.53,30.16,12,8,20,0.00
2013-3-3,45,40,34,36,30,23,87,67,44,30.17,29.99,13,5,16,0.00
2013-3-4,45,36,26,31,23,16,88,63,33,30.22,29.99,10,6,16,0.00
2013-3-5,54,39,25,24,20,17,86,51,24,30.21,29.91,24,13,35,0.00
2013-3-6,54,44,34,28,23,11,74,46,18,29.95,29.81,27,16,38,0.00
2013-3-7,45,36,28,29,24,12,94,66,26,29.97,29.86,17,12,24,0.00
2013-3-8,38,33,30,31,30,27,98,90,63,29.90,29.72,20,9,28,0.00
2013-3-9,45,35,27,29,23,16,98,67,34,30.25,29.81,27,19,38,0.00
2013-3-10,50,42,29,23,17,11,76,40,22,30.38,30.31,15,8,22,0.00
2013-3-11,53,37,22,26,21,11,87,58,23,30.37,30.25,14,7,21,0.00
2013-3-12,59,41,26,28,24,21,88,58,26,30.38,30.28,13,7,17,0.00
2013-3-13,68,47,28,28,23,12,85,49,12,30.43,30.32,13,8,19,0.00
2013-3-14,71,62,49,28,22,11,43,23,10,30.38,30.27,16,9,25,0.00
2013-3-15,66,51,32,29,24,16,73,39,15,30.28,30.09,13,7,18,0.00
2013-3-16,59,47,32,26,19,10,71,36,15,30.12,29.94,15,7,24,0.00
2013-3-17,53,43,31,25,14,5,61,33,15,30.07,29.96,27,11,38,0.00
2013-3-18,53,38,20,16,11,7,72,37,16,30.15,30.05,17,7,25,0.00
2013-3-19,57,44,35,26,21,16,56,40,27,30.23,30.12,13,5,18,0.00
2013-3-20,59,49,39,32,25,20,58,40,26,30.13,29.90,18,9,25,0.00
2013-3-21,46,39,31,29,14,0,83,38,15,30.05,29.93,18,8,27,0.00
2013-3-22,39,29,16,12,8,4,71,42,25,30.06,29.91,19,10,28,0.00
2013-3-23,38,27,16,17,2,-7,87,38,15,30.19,30.06,16,7,23,0.00
2013-3-24,47,33,13,12,5,1,68,34,15,30.16,30.06,17,6,25,0.00
2013-3-25,58,42,29,16,14,11,58,35,18,30.14,29.98,17,6,24,0.00
2013-3-26,61,49,37,21,14,8,43,25,13,30.00,29.90,15,9,25,0.00
2013-3-27,62,45,26,22,17,9,72,38,13,30.04,29.95,13,8,21,0.00
2013-3-28,63,48,30,31,24,18,72,42,18,30.16,30.03,19,7,31,0.00
2013-3-29,61,46,31,33,27,24,76,50,26,30.27,30.16,14,6,38,0.00
2013-3-30,64,48,31,30,26,-100,79,48,21,30.28,30.16,13,6,20,0.00
2013-3-31,60,45,33,35,28,19,80,55,21,30.19,29.96,31,8,43,0.00
2013-4-1,44,38,34,36,34,31,95,85,60,30.09,29.99,16,6,25,0.00
2013-4-2,56,44,37,39,36,31,94,75,40,30.22,30.07,16,7,23,0.00
2013-4-3,60,41,30,32,28,23,90,63,26,30.27,30.18,13,8,16,0.00
2013-4-4,65,50,34,28,24,21,68,40,21,30.22,30.00,19,13,29,0.00
2013-4-5,58,49,39,40,29,16,92,52,20,30.12,30.00,18,7,27,0.00
2013-4-6,58,45,32,26,24,21,73,48,24,30.10,30.03,14,7,23,0.00
2013-4-7,61,50,33,25,13,1,69,30,10,30.05,29.66,20,9,30,0.00
2013-4-8,52,38,32,32,23,1,98,59,12,29.74,29.47,29,17,38,0.00
2013-4-9,40,34,30,24,20,17,76,58,41,30.17,29.74,29,21,39,0.00
2013-4-10,60,42,26,24,18,10,70,42,20,30.23,30.07,18,11,25,0.00
2013-4-11,58,47,36,38,25,17,90,47,20,30.08,29.94,13,7,22,0.00
2013-4-12,63,45,23,22,14,3,76,36,9,30.09,29.92,11,6,17,0.00
2013-4-13,67,50,32,28,17,4,43,28,17,29.96,29.68,27,12,36,0.00
2013-4-14,60,43,26,28,13,4,74,32,15,29.91,29.61,17,8,28,0.00
2013-4-15,44,36,29,30,26,20,98,69,42,29.75,29.62,18,7,27,0.00
2013-4-16,35,29,25,29,25,21,98,88,59,30.00,29.70,20,14,27,0.00
2013-4-17,65,29,23,54,22,17,95,78,50,30.26,30.00,18,11,28,0.00
2013-4-18,49,32,16,21,13,6,87,51,21,30.34,30.26,11,6,19,0.00
2013-4-19,57,41,23,34,22,14,80,52,25,30.34,30.07,25,8,47,0.00
2013-4-20,56,45,32,34,23,15,82,47,20,30.22,30.15,12,7,25,0.00
2013-4-21,66,47,25,23,18,14,75,37,14,30.23,30.06,22,10,33,0.00
2013-4-22,60,47,28,23,17,6,70,33,16,30.20,30.03,24,12,32,0.00
2013-4-23,54,39,24,15,8,-5,58,31,10,30.26,30.05,21,8,26,0.00
2013-4-24,57,42,23,13,9,4,62,31,14,30.22,30.10,16,7,23,0.00
2013-4-25,64,43,21,14,9,0,64,31,8,30.20,30.04,14,7,30,0.00
2013-4-26,69,50,27,16,10,4,42,23,12,30.37,30.19,14,8,22,0.00
2013-4-27,72,52,30,23,18,15,55,29,14,30.42,30.22,15,9,22,0.00
2013-4-28,76,58,36,25,20,18,53,27,12,30.25,30.06,15,10,27,0.00
2013-4-29,76,57,36,26,23,19,57,30,15,30.12,29.86,18,10,27,0.00
2013-4-30,66,54,36,30,17,-6,64,27,12,30.14,29.88,22,13,32,0.00
2013-5-1,52,39,24,7,-1,-11,34,20,8,30.56,30.12,24,13,34,0.00
2013-5-2,62,44,20,10,5,0,54,23,9,30.62,30.41,11,6,17,0.00
2013-5-3,71,46,26,10,5,2,40,21,8,30.41,30.03,17,10,27,0.00
2013-5-4,61,48,29,22,14,7,43,25,15,30.05,29.90,25,8,52,0.00
2013-5-5,68,56,45,25,19,12,44,25,13,29.95,29.85,20,10,34,0.00
2013-5-6,56,48,39,37,30,19,80,50,28,30.02,29.96,23,11,35,0.00
2013-5-7,53,42,32,38,33,29,90,71,42,30.06,29.95,17,7,29,0.00
2013-5-8,61,44,29,39,32,26,92,67,32,30.17,30.05,11,6,16,0.00
2013-5-9,68,56,39,37,28,19,82,39,18,30.24,30.14,25,11,37,0.00
2013-5-10,70,62,46,31,28,-100,50,29,21,30.39,30.28,21,11,27,0.00
2013-5-11,75,57,36,32,25,-100,77,38,13,30.43,30.32,13,7,18,0.00
2013-5-12,82,62,40,29,25,20,61,30,11,30.42,30.23,14,7,18,0.00
2013-5-13,56,56,56,25,25,25,30,30,30,30.29,30.29,10,10,14,0.00
2013-5-14,82,74,64,23,20,17,17,13,10,30.08,29.99,20,11,31,0.00
2013-5-15,79,64,43,32,25,18,49,25,11,30.10,29.95,21,8,30,0.00
2013-5-16,72,55,41,33,9,-100,48,26,11,30.04,29.88,20,9,39,0.00
2013-5-17,58,50,39,46,36,-100,90,68,35,30.08,29.92,14,8,38,0.00
2013-5-18,61,48,33,38,31,24,94,57,24,30.14,30.07,17,8,24,0.00
2013-5-19,52,45,36,40,34,29,94,67,48,30.23,30.13,19,7,30,0.00
2013-5-20,65,49,28,35,28,25,88,50,22,30.28,30.16,14,7,21,0.00
2013-5-21,73,59,38,35,23,13,77,32,12,30.18,29.83,20,13,35,0.00
2013-5-22,75,59,42,23,18,8,43,22,11,29.87,29.68,22,15,38,0.00
2013-5-23,69,51,34,25,15,0,66,30,8,30.09,29.80,21,13,33,0.00
2013-5-24,72,51,26,14,8,4,42,20,8,30.12,29.96,17,10,29,0.00
2013-5-25,75,60,44,16,12,6,28,16,10,30.01,29.93,19,12,31,0.00
2013-5-26,74,60,42,18,14,6,31,17,10,30.06,29.94,19,11,28,0.00
2013-5-27,74,55,33,41,18,4,76,28,7,30.11,29.91,21,8,31,0.00
2013-5-28,57,48,41,41,36,31,86,67,39,30.00,29.86,18,8,26,0.00
2013-5-29,67,50,30,33,26,16,88,47,14,30.00,29.88,20,10,31,0.00
2013-5-30,72,54,31,24,17,11,64,29,10,30.11,29.97,16,8,27,0.00
2013-5-31,71,55,32,29,20,14,61,29,11,30.28,30.11,19,8,24,0.00
2013-6-1,80,58,33,21,18,15,57,26,10,30.30,30.09,13,6,18,0.00
2013-6-2,86,70,43,21,17,13,37,16,7,30.11,29.84,18,10,34,0.00
2013-6-3,82,68,49,37,28,21,52,26,12,30.10,29.94,15,8,23,0.00
2013-6-4,84,66,41,25,21,16,50,21,8,30.16,30.04,17,8,25,0.00
2013-6-5,83,67,41,29,22,15,52,22,8,30.23,30.11,12,6,21,0.00
2013-6-6,86,67,41,27,23,16,47,22,10,30.23,30.10,15,7,22,0.00
2013-6-7,88,70,48,30,24,20,37,20,9,30.20,30.07,17,10,38,0.00
2013-6-8,89,72,46,33,27,22,49,22,10,30.18,30.10,13,8,27,0.00
2013-6-9,93,76,49,32,28,24,39,19,9,30.19,29.98,18,9,31,0.00
2013-6-10,85,73,58,28,20,7,27,14,9,30.07,29.89,25,14,43,0.00
2013-6-11,83,66,48,34,21,4,32,19,10,30.16,29.97,19,8,31,0.00
2013-6-12,83,68,46,35,26,16,60,27,9,30.16,29.99,28,16,47,0.00
2013-6-13,82,69,52,31,19,-3,33,16,7,30.16,29.99,28,13,45,0.00
2013-6-14,80,58,33,27,14,-4,37,20,7,30.23,30.01,20,8,30,0.00
2013-6-15,82,63,35,22,13,0,53,19,6,30.15,30.03,19,8,32,0.00
2013-6-16,83,66,41,12,4,0,21,10,4,30.18,30.09,17,10,28,0.00
2013-6-17,85,67,41,21,11,2,24,12,5,30.21,30.03,13,8,24,0.00
2013-6-18,84,70,46,17,10,5,24,11,6,30.06,29.80,22,12,36,0.00
2013-6-19,71,62,49,17,9,0,22,13,6,30.05,29.80,20,11,32,0.00
2013-6-20,75,50,33,22,14,8,42,25,8,30.10,29.96,11,5,16,0.00
2013-6-22,80,70,51,25,17,12,34,14,8,30.15,30.00,14,6,19,0.00
2013-6-23,83,66,38,27,19,12,38,19,9,30.05,29.80,21,11,31,0.00
2013-6-24,71,64,53,39,29,22,46,27,18,30.01,29.85,21,10,34,0.00
2013-6-25,83,66,44,41,36,32,69,37,16,30.14,30.00,16,8,25,0.00
2013-6-26,90,76,54,42,36,30,55,27,13,30.27,30.12,15,9,25,0.00
2013-6-27,96,79,55,40,35,30,49,23,11,30.37,30.26,12,6,20,0.00
2013-6-28,94,73,55,47,35,30,40,26,13,30.39,30.24,18,8,31,0.00
2013-6-29,98,78,52,42,32,22,58,25,7,30.31,30.14,16,8,35,0.00
2013-6-30,96,79,55,37,33,28,44,22,10,30.27,30.15,24,8,41,0.00
2013-7-1,97,79,59,38,33,29,39,21,10,30.28,30.19,22,7,35,0.00
2013-7-2,95,76,54,38,34,31,46,25,11,30.32,30.18,23,10,36,0.00
2013-7-3,92,75,58,49,39,33,46,30,13,30.27,30.12,21,9,28,0.00
2013-7-4,92,77,58,47,43,30,60,33,13,30.18,30.01,27,6,37,0.00
2013-7-5,92,74,54,52,44,25,73,40,9,30.14,29.92,29,10,40,0.00
2013-7-6,89,75,61,54,40,28,68,35,14,30.12,29.95,24,12,41,0.00
2013-7-7,84,74,61,46,38,32,55,28,15,30.17,30.04,33,13,48,0.00
2013-7-8,90,75,59,46,24,-100,56,21,8,30.25,30.16,19,10,28,0.00
2013-7-9,92,75,50,25,14,10,27,11,5,30.32,30.20,15,8,23,0.00
2013-7-10,94,75,51,32,17,-100,20,12,6,30.27,30.12,21,10,39,0.00
2013-7-11,76,68,61,54,41,26,78,40,19,30.24,30.14,20,8,27,0.00
2013-7-12,86,70,50,51,44,29,85,46,13,30.20,30.05,18,6,24,0.00
2013-7-13,86,72,57,49,40,33,63,35,16,30.22,30.15,27,7,37,0.00
2013-7-15,88,80,70,57,44,37,59,32,18,30.16,30.07,13,7,23,0.00
2013-7-16,90,78,60,57,45,33,85,38,15,30.20,30.08,18,10,31,0.00
2013-7-17,91,76,56,40,34,28,54,25,12,30.31,30.20,12,6,23,0.00
2013-7-18,95,79,52,41,31,23,48,20,10,30.32,30.16,14,6,21,0.00
2013-7-19,92,78,65,43,38,30,43,25,12,30.27,30.14,16,6,26,0.00
2013-7-20,92,77,54,38,33,29,49,23,11,30.20,30.07,24,8,41,0.00
2013-7-21,91,75,53,42,35,28,50,27,11,30.18,30.05,24,8,36,0.00
2013-7-22,95,76,51,42,35,23,58,27,8,30.25,30.08,20,8,34,0.00
2013-7-23,88,72,57,53,42,34,56,36,15,30.27,30.18,25,7,39,0.00
2013-7-24,85,73,60,51,45,39,64,40,20,30.26,30.18,20,7,27,0.00
2013-7-25,90,82,66,46,35,27,48,20,11,30.29,30.21,16,7,26,0.00
2013-7-26,90,74,60,45,40,34,50,31,14,30.36,30.25,16,8,25,0.00
2013-7-27,74,65,58,57,54,45,85,68,36,30.34,30.15,16,5,21,0.00
2013-7-28,84,66,48,52,43,27,88,52,13,30.17,30.02,25,7,31,0.00
2013-7-29,82,68,59,52,42,36,74,41,19,30.25,30.11,25,7,35,0.00
2013-7-30,87,72,54,41,35,28,58,30,13,30.35,30.25,15,9,26,0.00
2013-7-31,88,76,58,40,34,28,50,24,12,30.35,30.17,21,12,34,0.00
2013-8-1,88,76,56,35,21,7,42,16,5,30.20,30.03,26,14,37,0.00
2013-8-2,86,68,44,19,15,11,29,15,6,30.17,30.05,18,11,29,0.00
2013-8-3,87,72,50,22,17,13,27,13,7,30.22,30.12,19,10,30,0.00
2013-8-4,88,72,52,34,23,16,29,17,10,30.26,30.13,15,10,25,0.00
2013-8-5,88,73,54,34,28,22,44,21,9,30.25,30.10,15,8,25,0.00
2013-8-6,89,74,50,26,21,16,31,15,8,30.21,30.10,13,6,21,0.00
2013-8-7,86,73,50,29,22,17,32,16,10,30.20,30.06,18,10,29,0.00
2013-8-8,83,68,45,25,16,10,31,16,7,30.15,30.05,17,12,25,0.00
2013-8-9,82,68,45,25,20,15,33,17,10,30.17,30.09,27,14,42,0.00
2013-8-10,84,68,46,25,21,15,36,19,8,30.22,30.12,20,12,33,0.00
2013-8-11,84,67,47,24,18,13,30,17,9,30.26,30.11,17,11,30,0.00
2013-8-12,86,68,48,22,16,10,24,14,6,30.25,30.13,16,10,24,0.00
2013-8-13,88,68,46,22,12,-100,25,13,7,30.28,30.16,14,8,24,0.00
2013-8-14,89,69,50,17,11,-100,20,12,5,30.26,30.14,13,8,19,0.00
2013-8-15,89,63,45,24,4,-100,24,12,6,30.28,30.17,19,10,28,0.00
2013-8-16,90,73,60,41,27,-100,39,21,11,30.29,30.19,14,7,23,0.00
2013-8-17,89,76,63,49,35,-100,51,25,15,30.28,30.13,21,8,31,0.00
2013-8-18,88,72,58,51,45,34,69,40,15,30.31,30.21,16,8,26,0.00
2013-8-19,83,65,56,55,36,-100,74,47,23,30.33,30.19,15,8,25,0.00
2013-8-20,80,64,55,54,46,-100,72,57,29,30.27,30.21,20,8,29,0.00
2013-8-21,85,68,50,53,46,37,89,54,19,30.31,30.16,21,8,27,0.00
2013-8-22,84,72,53,54,45,34,90,43,20,30.32,30.15,18,10,28,0.00
2013-8-23,78,68,57,50,46,41,74,46,32,30.19,30.03,19,13,28,0.00
2013-8-24,78,64,55,49,43,-100,74,52,24,30.18,30.10,25,14,38,0.00
2013-8-25,80,66,53,52,45,30,81,52,16,30.25,30.12,23,14,31,0.00
2013-8-26,74,65,57,52,48,43,81,57,33,30.30,30.21,17,10,26,0.00
2013-8-27,75,61,53,51,49,47,81,67,41,30.24,30.18,17,8,27,0.00
2013-8-28,81,74,64,56,50,43,72,44,26,30.28,30.18,18,12,28,0.00
2013-8-29,86,73,52,53,46,40,84,45,20,30.33,30.26,16,9,24,0.00
2013-8-30,89,71,55,56,48,41,77,49,20,30.36,30.20,15,7,25,0.00
2013-8-31,82,65,57,58,51,-100,87,67,30,30.29,30.20,18,8,28,0.00
2013-9-1,82,65,52,58,52,47,91,67,30,30.26,30.13,10,5,14,0.00
2013-9-2,80,68,56,58,53,45,92,63,34,30.26,30.17,13,7,19,0.00
2013-9-3,77,64,57,56,54,50,90,72,40,30.36,30.22,16,7,24,0.00
2013-9-4,84,65,52,57,52,48,92,67,30,30.39,30.24,17,6,22,0.00
2013-9-5,83,75,63,56,48,42,66,40,25,30.30,30.19,17,11,27,0.00
2013-9-6,82,69,59,51,48,42,71,48,26,30.27,30.17,21,13,29,0.00
2013-9-7,71,62,55,57,51,-100,87,71,49,30.31,30.22,22,8,31,0.00
2013-9-8,79,64,52,54,48,39,88,62,25,30.25,30.09,15,6,27,0.00
2013-9-9,78,63,47,50,43,26,91,55,15,30.17,30.04,11,7,17,0.00
2013-9-10,72,60,45,52,42,37,85,53,28,30.17,30.10,17,8,26,0.00
2013-9-11,61,56,53,54,52,50,92,84,72,30.22,30.16,9,4,12,0.00
2013-9-12,64,57,53,54,52,50,96,86,60,30.23,30.16,12,5,18,0.00
2013-9-13,67,59,52,53,51,48,94,78,51,30.18,30.05,14,4,18,0.00
2013-9-14,68,57,46,54,46,-100,93,71,45,30.14,30.06,18,5,26,0.00
2013-9-15,80,62,45,50,45,40,93,61,25,30.16,30.09,11,6,17,0.00
2013-9-16,79,67,53,48,42,35,74,44,21,30.19,30.05,18,12,29,0.00
2013-9-17,80,67,55,45,32,13,65,34,9,30.07,29.80,30,17,44,0.00
2013-9-18,59,53,49,30,27,22,48,36,27,30.15,29.94,10,7,15,0.00
2013-9-19,73,53,32,34,28,19,82,44,13,30.25,30.13,8,4,11,0.00
2013-9-20,77,59,35,33,29,24,82,40,15,30.19,29.96,20,10,35,0.00
2013-9-21,75,62,47,32,23,-100,53,27,11,30.01,29.71,29,18,46,0.00
2013-9-22,61,52,43,35,31,19,68,46,20,30.09,29.73,19,10,26,0.00
2013-9-23,71,52,32,32,27,20,84,45,15,30.20,30.09,11,6,15,0.00
2013-9-24,75,60,42,26,22,14,52,27,11,30.17,29.81,25,16,38,0.00
2013-9-25,64,51,40,28,23,16,63,34,21,29.84,29.73,18,11,31,0.00
2013-9-26,44,38,35,33,28,23,92,65,47,30.00,29.81,17,7,23,0.00
2013-9-27,52,41,31,33,27,19,90,60,28,30.27,29.99,13,7,20,0.00
2013-9-28,65,45,26,22,18,-100,76,42,17,30.30,30.20,13,9,20,0.00
2013-9-29,68,55,41,21,18,16,42,24,14,30.26,30.12,20,10,31,0.00
2013-9-30,74,59,39,27,20,16,44,24,14,30.14,30.03,14,7,23,0.00
2013-10-1,72,62,52,24,23,20,33,23,14,30.08,30.02,12,8,20,0.00
2013-10-2,69,51,38,37,28,19,59,43,23,30.09,29.92,18,6,28,0.00
2013-10-3,45,40,33,22,16,11,53,37,24,30.20,29.94,19,11,28,0.00
2013-10-4,47,38,29,23,20,13,69,50,26,30.46,30.20,21,9,32,0.00
2013-10-5,61,39,19,21,14,11,79,43,14,30.53,30.42,13,6,17,0.00
2013-10-6,77,50,25,18,14,11,59,30,10,30.50,30.27,13,7,17,0.00
2013-10-7,70,55,38,20,15,10,46,24,10,30.28,30.03,19,11,30,0.00
2013-10-8,65,50,32,17,13,10,47,25,13,30.04,29.80,11,6,19,0.00
2013-10-9,55,43,33,37,25,18,93,51,29,29.83,29.70,20,9,37,0.00
2013-10-10,49,40,34,38,35,32,95,83,53,30.02,29.78,15,4,22,0.00
2013-10-11,58,40,28,33,27,17,97,67,20,30.15,30.04,12,6,16,0.00
2013-10-12,59,46,32,31,27,24,83,50,26,30.10,29.95,17,9,27,0.00
2013-10-13,47,40,33,38,35,27,97,84,46,30.17,29.95,16,5,22,0.00
2013-10-14,50,40,31,36,30,25,95,72,37,30.28,30.18,8,3,12,0.00
2013-10-15,45,37,29,33,27,21,93,71,38,30.27,30.23,18,7,24,0.00
2013-10-16,59,42,23,26,20,12,89,51,16,30.32,30.18,9,5,14,0.00
2013-10-17,59,42,26,23,20,12,81,49,20,30.22,30.14,15,8,23,0.00
2013-10-18,59,39,22,24,21,15,85,55,18,30.33,30.22,12,8,15,0.00
2013-10-19,65,43,25,22,13,-100,78,39,11,30.32,30.20,13,8,16,0.00
2013-10-20,65,44,26,20,16,12,63,38,14,30.23,30.10,14,9,23,0.00
2013-10-21,64,46,26,24,21,20,76,43,19,30.31,30.20,11,7,15,0.00
2013-10-22,68,47,27,24,20,17,77,42,14,30.34,30.20,13,7,18,0.00
2013-10-23,69,44,27,23,19,16,72,42,13,30.25,30.14,13,8,17,0.00
2013-10-24,68,46,28,26,21,16,72,43,14,30.25,30.15,14,7,19,0.00
2013-10-25,67,46,29,25,21,14,74,43,14,30.36,30.26,13,8,18,0.00
2013-10-26,68,49,28,24,16,-100,73,35,13,30.42,30.27,16,8,20,0.00
2013-10-27,63,51,33,23,18,13,54,30,14,30.27,29.58,24,13,41,0.00
2013-10-28,49,38,31,35,25,-100,96,65,30,29.78,29.45,24,13,36,0.00
2013-10-29,41,33,29,33,29,25,97,85,61,30.00,29.79,13,7,20,0.00
2013-10-30,41,33,29,32,28,25,98,82,54,30.17,30.00,11,4,16,0.00
2013-10-31,50,34,20,32,25,17,90,71,38,30.32,30.17,9,5,12,0.00
2013-11-1,59,37,23,31,26,20,91,69,28,30.39,30.27,12,7,15,0.00
2013-11-2,65,45,26,25,16,-100,81,41,10,30.27,29.89,17,8,26,0.00
2013-11-3,46,34,27,32,19,6,92,55,25,30.02,29.89,16,7,23,0.00
2013-11-4,38,31,21,17,15,12,68,51,36,30.15,29.96,14,7,21,0.00
2013-11-5,44,25,12,15,10,5,81,57,21,30.37,30.16,13,6,17,0.00
2013-11-6,56,37,20,25,18,10,69,49,28,30.46,30.38,13,8,16,0.00
2013-11-7,61,44,26,24,20,18,78,43,20,30.43,30.20,13,8,19,0.00
2013-11-8,61,42,25,21,19,18,72,43,19,30.22,30.10,10,5,15,0.00
2013-11-9,63,42,26,18,14,-100,66,38,15,30.30,30.16,13,6,15,0.00
2013-11-10,66,41,26,17,12,5,62,36,10,30.36,30.25,15,8,19,0.00
2013-11-11,69,44,25,14,10,7,51,29,9,30.48,30.34,16,9,22,0.00
2013-11-12,66,46,28,17,13,10,50,30,11,30.54,30.42,15,7,18,0.00
2013-11-13,63,46,32,24,18,14,63,37,15,30.43,30.27,14,8,20,0.00
2013-11-14,61,41,22,27,15,-1,85,45,8,30.33,29.85,23,11,33,0.00
2013-11-15,40,31,18,30,21,13,81,67,49,29.84,29.75,12,5,15,0.00
2013-11-16,49,34,17,20,15,-100,83,51,31,29.88,29.65,16,6,24,0.00
2013-11-17,56,38,21,21,18,14,76,47,24,30.22,29.90,13,6,17,0.00
2013-11-18,60,41,22,29,22,17,83,52,19,30.23,30.07,16,10,25,0.00
2013-11-19,50,41,27,32,28,21,80,62,41,30.06,29.99,13,8,20,0.00
2013-11-20,47,36,26,37,31,21,95,81,60,30.01,29.87,11,6,16,0.00
2013-11-21,33,30,27,32,30,26,98,97,95,30.04,29.89,23,12,33,0.00
2013-11-22,30,29,28,11,9,7,48,43,38,30.23,30.19,22,17,35,0.00
2013-11-23,33,28,24,23,11,-100,84,54,42,30.22,30.14,26,12,34,0.00
2013-11-24,41,29,15,24,21,12,90,74,43,30.30,30.16,10,6,13,0.00
2013-11-25,46,26,12,23,16,9,88,71,33,30.44,30.30,12,8,16,0.00
2013-11-26,55,33,16,27,19,12,84,63,25,30.46,30.31,15,7,18,0.00
2013-11-27,52,36,24,27,22,19,83,59,28,30.32,30.11,12,6,19,0.00
2013-11-28,46,34,25,29,25,22,87,72,44,30.23,30.11,10,4,13,0.00
2013-11-29,49,34,20,25,22,17,89,66,33,30.35,30.24,12,7,16,0.00
2013-11-30,52,31,20,25,20,-100,88,69,33,30.37,30.27,14,7,19,0.00
2013-12-1,52,34,20,26,21,17,87,66,28,30.41,30.32,13,8,16,0.00
2013-12-2,54,43,26,24,19,14,84,45,21,30.32,29.79,14,9,22,0.00
2013-12-3,47,26,11,31,20,4,95,80,34,29.76,29.60,23,12,33,0.00
2013-12-4,19,-2,-15,8,-7,-19,87,79,59,30.00,29.71,15,6,18,0.00
2013-12-5,11,-8,-20,2,-14,-26,80,74,62,30.01,29.94,15,8,18,0.00
2013-12-6,27,6,-16,13,-3,-22,81,67,37,30.03,29.88,18,10,25,0.00
2013-12-7,28,18,9,16,8,-100,86,70,50,29.95,29.64,22,12,32,0.00
2013-12-8,18,8,-12,2,-2,-17,77,64,44,30.09,29.95,11,4,16,0.00
2013-12-9,19,2,-14,-3,-9,-20,74,62,32,30.44,30.20,16,7,20,0.00
2013-12-10,42,14,-4,16,3,-10,82,64,29,30.44,30.25,16,9,20,0.00
2013-12-11,30,10,-2,15,3,-7,84,73,49,30.45,30.34,12,7,15,0.00
2013-12-12,43,18,1,21,8,-3,83,67,34,30.43,30.21,16,9,20,0.00
2013-12-13,40,19,9,19,10,2,87,69,31,30.25,30.17,16,8,19,0.00
2013-12-14,36,19,3,21,9,-100,86,73,52,30.52,30.52,12,6,15,0.00
2013-12-15,49,25,11,25,15,7,87,69,30,30.55,30.45,16,10,19,0.00
2013-12-16,50,30,18,23,18,11,82,65,32,30.53,30.48,15,8,19,0.00
2013-12-17,56,33,16,29,18,10,82,59,20,0.00,40.00,13,7,17,0.00
2013-12-18,45,34,22,35,26,14,90,73,51,0.00,40.00,20,11,28,0.00
2013-12-19,40,29,17,34,27,15,98,94,79,0.00,40.00,20,10,27,0.00
2013-12-20,24,17,6,20,14,3,94,88,78,0.00,40.00,13,4,17,0.00
2013-12-21,38,29,18,29,22,-100,89,80,71,0.00,40.00,17,6,22,0.00
2013-12-22,38,26,13,29,21,10,91,80,64,0.00,40.00,9,5,13,0.00
2013-12-23,49,26,16,31,21,14,93,85,48,0.00,40.00,14,9,17,0.00
2013-12-24,43,29,15,29,22,12,90,76,53,0.00,40.00,15,8,18,0.00
2013-12-25,40,23,9,20,14,5,90,69,38,0.00,40.00,13,7,17,0.00
2013-12-26,50,25,10,19,10,3,78,58,20,0.00,40.00,18,8,21,0.00
2013-12-27,56,28,14,25,15,7,81,62,23,0.00,40.00,15,8,20,0.00
2013-12-28,42,33,22,20,18,16,77,57,38,0.00,40.00,13,10,19,0.00
2013-12-29,35,22,16,13,10,8,73,63,32,0.00,40.00,14,9,17,0.00
2013-12-30,51,30,13,25,14,5,81,56,24,0.00,40.00,16,8,19,0.00
2013-12-31,49,34,23,26,21,15,82,62,26,0.00,40.00,12,5,17,0.00
2014-1-1,44,27,17,26,19,12,88,72,42,0.00,40.00,12,7,16,0.00
2014-1-2,53,32,20,24,18,14,88,63,23,0.00,40.00,13,6,16,0.00